GFSNW_850_rhum_090.txt.gz
RH
70 67 74 86 97 97 96 98 97 100 99 96 98 99 84 84 70 51 45 42 41 46 51 56 60 62 61 56 56 68 57 66 84 62 50 49 57 53 45 76 67 63 77 97
62 70 71 74 77 87 88 98 99 99 94 94 97 85 92 88 57 49 44 47 46 48 48 59 56 53 52 54 55 63 60 70 88 70 59 51 52 47 44 42 60 61 79 83
64 72 79 74 69 78 85 90 98 93 93 91 69 86 90 72 53 46 46 48 45 44 47 45 58 53 51 52 53 57 62 56 73 84 70 63 67 55 47 60 82 66 71 72
64 71 78 75 68 66 79 74 84 80 92 66 60 66 71 55 56 45 43 46 46 46 49 47 48 44 44 49 50 57 54 74 72 50 47 54 56 55 54 61 48 64 64 63
66 72 77 77 67 65 81 71 79 76 55 47 54 62 53 55 56 60 49 50 45 46 60 61 53 51 52 53 47 45 47 84 66 82 44 47 52 51 54 57 56 46 50 59
60 69 74 72 70 76 77 68 62 60 52 49 53 61 58 58 54 56 56 57 50 62 67 60 52 47 45 46 52 53 55 74 87 86 54 48 64 52 53 53 57 60 69 58
67 66 68 67 64 61 71 65 57 46 57 52 59 54 53 59 60 60 59 61 54 63 60 55 50 44 42 42 44 43 52 57 77 94 65 81 51 44 48 51 50 54 57 58
72 71 65 62 52 52 57 58 60 55 55 53 54 52 56 56 59 63 65 66 64 59 60 60 53 57 52 45 45 47 48 56 77 87 82 49 50 50 54 61 57 52 54 57
74 75 76 64 54 56 57 60 62 62 52 70 61 52 51 55 58 63 64 60 57 61 59 49 51 58 50 51 46 44 46 49 63 70 77 58 54 50 48 47 68 52 51 55
79 82 76 70 66 53 54 51 50 60 60 75 67 70 68 59 58 65 60 58 59 56 64 54 56 64 49 60 52 54 58 52 61 67 70 55 48 47 49 61 65 52 51 52
71 74 78 73 67 67 48 52 56 52 71 77 74 71 72 69 64 66 65 63 64 66 71 60 56 57 56 55 42 45 54 58 62 54 60 67 47 52 57 54 50 52 55 56
80 69 66 75 73 68 71 46 51 61 60 67 70 71 71 70 70 75 68 62 58 66 74 62 54 56 52 48 52 48 60 53 65 53 59 46 46 53 56 52 54 56 57 61
76 76 72 77 75 82 77 65 45 52 68 67 66 74 68 68 69 70 77 66 69 70 63 70 68 66 57 60 55 45 47 48 64 55 44 49 47 50 53 56 59 61 62 66
69 78 74 79 80 86 89 76 46 56 61 80 72 63 61 65 67 72 71 69 70 70 65 74 76 70 52 60 59 59 53 56 58 57 48 46 46 49 54 59 61 64 65 65
59 79 77 80 82 89 90 79 56 44 45 69 66 54 63 64 62 67 70 71 78 76 73 92 86 62 65 61 69 77 53 62 66 63 47 49 56 55 58 62 64 67 66 65
45 78 78 82 77 83 85 82 54 47 45 48 93 72 69 71 71 68 70 73 77 76 74 71 66 70 68 89 80 43 35 41 41 46 49 52 55 56 59 66 70 68 66 65
44 45 79 80 80 72 80 70 55 52 46 48 81 88 75 68 72 74 73 73 74 72 74 71 66 72 69 92 80 42 36 40 46 52 51 62 62 63 61 62 61 60 57 36
78 67 82 83 82 69 74 62 54 53 47 43 98 96 74 70 75 74 69 72 71 73 75 69 70 71 74 95 68 51 44 46 56 58 64 60 60 64 57 50 47 37 30 30
80 80 85 86 74 71 70 61 55 53 52 67 80 95 95 71 76 72 70 67 83 73 86 75 70 80 90 72 56 48 49 49 53 66 68 65 55 46 41 38 36 33 34 40
82 71 63 73 61 64 62 60 62 64 59 54 87 76 93 77 77 73 77 70 90 95 84 74 88 86 56 44 48 44 46 51 55 68 66 59 48 44 41 36 36 38 42 40
82 66 65 60 58 61 64 72 82 76 81 72 77 78 86 70 93 88 68 92 94 97 92 91 94 91 65 50 52 48 49 53 56 53 50 50 46 37 32 34 40 42 34 29
86 73 62 60 64 64 78 90 72 80 83 68 73 76 80 76 72 80 77 93 94 97 79 94 97 87 64 54 54 54 59 60 58 53 47 42 34 33 38 42 38 25 24 33
77 68 63 64 74 83 86 78 86 88 64 71 79 91 78 70 74 80 91 96 94 72 91 93 84 68 64 63 61 69 66 62 57 54 46 37 36 41 43 31 21 25 33 42
79 73 88 84 94 90 88 88 93 71 72 71 87 88 81 76 86 80 97 78 79 97 100 85 93 67 63 65 66 68 65 63 61 51 39 39 44 42 25 20 24 37 40 43
82 93 93 96 73 78 68 67 48 49 70 78 84 84 75 92 91 81 87 89 98 90 82 90 82 66 65 66 65 65 64 62 48 40 42 47 40 21 21 30 37 42 45 47
90 99 98 96 85 94 80 60 70 58 67 78 76 88 94 93 94 92 92 90 83 80 94 65 59 61 66 66 65 62 55 44 45 47 48 30 18 19 32 36 42 46 46 49
100 99 99 95 85 85 78 69 61 61 76 96 89 94 78 89 95 95 87 88 84 62 47 50 54 57 62 63 57 50 49 50 50 44 23 19 21 34 35 40 45 48 48 51

GFSNW_850_rhum_093.txt.gz
RH
54 60 86 86 88 87 82 98 98 95 93 88 99 98 85 82 74 57 47 50 54 55 56 59 64 65 67 68 60 81 76 82 98 74 52 54 58 70 55 78 71 76 82 98
62 65 71 71 71 76 80 95 95 80 82 99 92 82 84 85 72 57 48 51 52 49 54 64 58 62 56 56 61 68 64 78 91 69 58 59 66 57 54 57 68 80 88 92
66 69 60 58 69 74 79 76 96 74 80 87 85 80 87 82 53 49 49 50 47 53 52 50 62 59 57 53 56 58 61 68 76 90 77 67 75 64 61 62 81 81 86 88
62 59 54 52 54 61 78 76 89 81 92 76 78 73 68 68 70 56 45 50 54 52 56 52 53 47 50 52 52 61 64 73 70 64 52 54 57 61 67 73 63 74 75 78
64 61 63 58 46 56 75 76 70 71 76 54 61 66 69 69 65 65 65 71 65 72 80 74 74 64 62 60 57 49 58 80 70 89 48 49 53 56 60 65 66 63 64 70
69 64 62 58 53 48 60 69 67 64 53 64 68 72 60 65 60 58 60 64 62 75 71 65 59 58 53 48 52 60 61 80 90 90 71 60 70 53 56 60 64 62 72 60
70 67 64 53 48 46 49 59 55 63 69 70 68 60 60 65 66 65 64 60 62 62 59 54 51 51 49 45 48 50 60 66 88 92 70 80 56 46 50 54 58 62 63 70
72 70 69 54 55 58 51 46 58 59 70 65 61 57 60 63 62 65 67 64 60 58 57 64 62 66 56 54 50 49 54 66 79 81 90 56 53 51 57 60 64 57 64 68
77 72 70 64 57 57 57 50 53 60 65 72 73 69 58 70 71 71 63 56 55 56 71 63 54 63 54 56 54 50 52 58 74 75 81 65 53 52 50 49 74 54 57 67
72 74 72 70 66 57 54 51 49 50 60 68 67 74 78 67 71 78 65 59 60 61 77 68 64 74 51 66 59 53 62 62 67 75 82 63 50 52 50 61 51 55 54 56
69 70 68 69 68 67 60 49 53 52 56 63 68 68 66 66 70 81 69 67 67 76 78 71 70 66 61 56 51 46 59 64 70 67 65 62 47 54 57 52 52 53 54 56
56 72 70 65 67 68 70 60 48 59 68 67 69 63 64 64 61 63 68 67 72 75 82 81 72 64 65 61 59 51 57 55 63 56 58 46 47 50 49 48 50 54 56 60
38 64 72 71 72 71 71 73 50 60 68 67 71 67 63 62 62 63 64 71 66 75 73 77 83 75 71 69 69 52 51 55 60 55 44 52 45 50 52 52 53 58 60 62
34 53 74 73 75 76 74 71 60 53 66 83 71 66 65 64 63 63 66 67 66 67 68 80 87 83 60 71 63 67 54 58 64 67 56 48 47 46 47 53 57 59 62 63
40 44 75 76 78 78 82 78 73 52 52 77 62 64 58 65 68 66 68 71 73 77 78 92 88 76 71 75 77 88 58 62 68 62 46 48 54 53 54 56 59 63 65 64
45 38 75 78 81 70 82 75 65 52 47 51 87 70 73 71 74 74 73 72 78 78 79 78 76 71 70 89 93 60 41 42 42 45 44 49 51 56 60 61 63 66 66 65
45 38 43 79 81 66 81 73 64 53 49 49 71 84 75 66 73 75 75 76 76 75 77 82 75 73 72 94 77 55 43 38 40 44 46 58 56 54 59 62 67 62 56 39
59 69 60 82 83 78 68 73 56 53 50 48 91 86 72 66 75 75 74 75 76 76 72 79 75 76 80 94 71 52 55 51 50 52 52 52 54 61 63 58 53 42 32 31
72 82 86 86 82 71 66 64 64 57 54 62 81 90 90 71 76 77 72 73 87 79 88 85 77 87 92 72 62 54 51 49 54 60 60 61 60 60 54 45 38 34 34 40
83 80 74 68 61 62 60 64 62 65 63 60 79 79 89 72 79 79 83 78 94 95 86 79 90 87 63 52 51 52 47 51 50 62 70 67 60 51 46 42 38 36 40 42
78 67 63 68 59 61 64 71 77 83 80 67 66 76 88 69 91 91 78 94 96 96 87 91 93 94 76 58 49 50 54 50 50 51 50 55 51 47 44 39 37 41 36 21
80 73 64 60 65 67 67 84 78 83 81 74 72 65 77 77 77 82 80 93 92 95 85 95 96 82 64 59 59 58 55 53 56 55 48 50 44 38 34 38 42 28 18 25
82 70 64 65 72 84 80 75 82 92 68 70 80 84 75 72 73 85 94 96 96 79 98 95 86 72 70 64 63 65 65 65 58 50 46 41 38 38 41 38 20 19 30 36
78 73 84 84 94 92 86 84 80 56 54 60 74 84 76 80 86 88 93 82 85 100 100 85 90 69 55 70 69 68 66 64 56 51 46 40 40 44 35 19 19 31 36 38
84 93 98 95 68 77 68 72 57 58 55 67 82 81 79 93 94 90 89 95 100 92 80 85 62 48 56 73 71 70 64 61 59 54 41 41 47 33 19 22 31 35 40 39
88 100 98 94 93 94 76 69 50 53 62 69 73 93 98 97 94 96 94 93 88 71 89 38 44 39 62 69 72 64 65 64 58 43 44 47 30 18 23 32 35 40 41 40
100 99 99 90 89 79 81 65 54 57 65 92 91 92 74 87 98 100 92 89 81 52 35 31 35 42 53 60 62 63 62 55 46 47 48 29 18 22 32 35 40 43 42 45

GFSNW_850_rhum_096.txt.gz
RH
64 68 65 61 55 48 50 67 94 71 75 85 86 98 88 83 76 63 57 52 52 62 69 78 72 72 70 69 70 92 77 86 97 76 60 60 62 70 69 83 71 83 85 98
65 62 59 58 64 61 44 64 72 64 72 94 94 79 76 83 68 58 52 56 52 51 56 65 59 66 58 65 67 73 67 82 93 66 54 57 71 66 62 65 72 89 89 94
63 57 56 50 48 50 53 60 85 59 63 86 87 83 84 75 54 50 50 53 49 53 55 55 63 61 59 59 60 59 60 74 76 89 74 70 77 66 68 65 85 85 89 88
64 59 54 50 49 51 62 60 84 80 94 78 81 76 70 68 72 55 56 62 72 56 63 60 67 62 59 53 55 61 66 77 73 68 67 59 60 60 70 78 70 71 78 82
70 62 55 51 49 55 57 67 67 75 74 64 64 72 71 72 66 65 66 70 67 73 76 70 73 70 62 61 55 55 64 80 73 90 56 57 58 54 62 68 67 67 70 70
70 69 57 49 43 43 60 65 62 64 62 68 70 74 66 68 61 61 62 64 65 66 67 66 62 62 62 64 56 62 65 80 90 75 72 66 71 52 57 63 64 66 71 66
71 69 64 52 48 40 58 55 53 53 68 76 72 62 62 68 72 63 64 61 64 60 59 58 56 57 59 58 55 55 64 71 90 89 70 72 56 48 51 55 62 63 69 69
74 69 70 61 53 48 48 53 56 54 70 74 68 68 62 63 62 66 68 62 59 59 61 61 61 65 57 56 58 55 60 74 81 84 88 59 53 53 60 64 65 59 65 71
70 73 72 71 58 53 52 52 58 62 62 73 64 72 67 75 76 74 61 56 58 60 74 65 56 60 57 58 56 49 58 66 75 84 84 67 47 53 51 48 62 57 61 70
68 69 68 71 67 59 50 51 50 52 61 61 65 72 67 66 75 82 73 64 62 64 82 74 69 75 54 58 62 50 60 67 77 79 88 71 52 54 49 56 35 57 57 60
54 69 72 67 68 66 63 46 46 53 53 53 59 67 66 68 71 80 65 67 67 80 80 76 74 72 64 66 55 50 54 67 73 73 74 69 52 57 54 43 56 53 55 55
40 57 66 70 68 72 70 68 51 48 64 64 62 65 65 66 65 62 66 65 69 74 84 85 84 68 74 66 67 49 69 58 56 60 58 40 49 43 42 43 43 50 50 53
37 40 53 71 71 75 78 77 67 49 63 63 63 60 64 65 66 69 74 73 68 73 66 76 87 83 77 78 76 56 52 57 67 52 41 55 44 44 48 48 48 50 54 57
37 39 50 73 72 76 82 81 74 50 59 78 68 66 65 62 63 65 70 75 73 73 73 77 89 86 64 80 66 69 54 60 65 70 59 48 45 47 46 53 53 55 60 62
35 43 43 74 74 74 81 86 79 68 47 63 53 58 58 66 67 67 70 74 76 79 82 96 93 81 81 82 83 92 61 63 68 55 43 41 41 38 48 52 55 58 62 65
27 44 40 71 77 73 79 83 80 64 52 49 80 66 76 74 72 72 74 80 83 85 85 83 80 79 72 90 93 64 44 42 44 47 42 41 44 48 52 56 58 63 65 66
28 40 40 48 80 80 73 78 73 55 52 49 63 65 78 68 69 75 76 80 83 83 78 89 80 75 77 94 77 56 44 41 41 43 50 58 55 54 58 60 63 68 67 61
42 50 55 53 82 84 78 68 67 54 52 49 88 81 70 68 74 76 77 78 80 79 79 84 84 80 88 98 73 59 57 57 55 54 50 50 48 57 62 66 68 64 47 34
63 72 79 84 87 81 73 71 71 69 56 54 78 83 79 70 77 77 78 76 88 81 93 88 84 90 95 78 67 62 56 55 55 61 62 59 55 60 66 64 59 40 34 36
73 84 82 80 72 70 68 64 64 67 63 61 83 64 93 68 79 81 84 84 95 96 86 82 95 92 67 59 55 56 55 54 57 65 73 70 68 67 62 50 41 37 36 40
86 77 66 71 67 58 63 70 80 79 88 69 64 71 86 72 88 90 82 95 96 100 84 92 94 93 77 57 54 51 56 60 59 55 52 56 58 59 50 45 40 38 40 30
74 71 68 64 66 72 76 86 80 91 86 79 80 74 73 79 77 82 86 90 91 99 88 97 99 81 45 61 56 59 61 65 66 59 50 53 52 50 46 38 37 40 23 15
89 76 66 71 72 88 85 79 88 93 71 80 81 93 76 77 74 88 94 94 95 84 98 97 86 47 45 54 65 67 67 66 63 56 52 48 45 40 37 39 34 16 17 30
85 79 86 89 93 92 84 82 80 47 55 68 64 89 76 81 90 89 94 79 85 100 100 83 87 36 47 46 67 70 67 64 57 50 45 42 40 40 41 30 15 20 30 36
88 90 98 95 71 69 70 63 65 65 54 60 71 85 76 96 92 93 90 96 99 93 80 83 35 39 37 40 61 69 67 63 58 52 49 43 41 45 32 16 22 32 37 37
96 99 99 93 93 90 93 82 64 58 63 60 61 96 98 95 92 98 96 93 92 74 88 34 26 28 32 36 53 67 70 62 59 57 51 42 45 40 18 19 30 36 38 39
99 98 98 91 89 83 78 74 55 55 57 89 91 88 74 91 100 99 91 89 81 43 31 24 27 34 34 34 46 62 68 64 62 60 46 46 46 24 18 28 34 39 38 42

GFSNW_850_rhum_099.txt.gz
RH
68 56 55 49 50 50 48 56 86 54 51 70 88 99 94 81 70 65 64 58 55 69 70 83 89 82 78 68 76 88 80 87 94 75 60 61 65 72 75 90 74 84 84 97
62 61 52 48 46 47 40 47 58 60 52 93 96 80 75 81 67 59 53 56 52 52 66 69 63 66 59 68 76 75 78 85 92 61 51 54 66 67 65 75 76 89 90 86
62 57 55 48 51 52 45 49 84 55 56 79 84 87 80 72 57 55 54 64 52 52 60 58 64 62 59 67 67 62 60 80 74 82 63 68 76 71 62 71 88 83 86 77
65 58 54 52 47 50 40 52 81 80 90 74 73 77 74 70 76 62 59 60 72 71 62 58 65 64 59 60 58 66 68 84 80 76 72 71 70 67 62 77 70 71 71 82
68 65 55 48 46 47 52 52 64 72 65 66 67 75 74 78 70 72 66 69 69 74 66 65 66 70 63 62 55 63 70 83 76 85 69 66 69 62 59 68 67 67 75 76
69 69 65 52 44 45 62 64 56 55 64 72 74 76 69 69 68 61 65 67 69 64 67 66 63 64 64 66 66 64 68 82 89 80 67 73 75 65 58 64 67 65 79 64
69 69 66 61 52 46 59 56 56 51 68 77 76 66 63 67 71 69 63 62 65 59 59 58 63 70 70 74 72 65 68 74 91 93 68 63 49 47 51 60 62 69 71 69
54 69 70 67 56 51 51 52 54 54 70 70 70 65 65 64 63 66 68 60 58 59 60 62 58 63 54 55 63 70 67 77 85 90 91 59 52 53 61 67 60 68 69 71
43 54 66 68 63 56 54 53 53 58 62 68 67 68 67 74 75 75 62 59 60 64 73 65 56 55 56 53 51 59 70 72 77 85 88 64 41 53 53 46 61 60 64 78
34 43 48 66 67 62 57 51 51 54 58 56 60 71 71 69 77 83 74 64 65 66 80 75 72 77 57 67 61 52 63 71 86 86 91 76 54 55 49 48 36 57 59 63
21 38 36 56 64 65 65 61 47 50 54 47 48 58 65 69 74 81 65 69 68 80 77 81 76 77 67 70 62 53 56 67 79 79 83 75 54 58 52 44 51 51 54 58
12 34 36 54 64 67 72 71 64 53 56 58 58 56 58 67 64 63 70 69 71 75 86 88 87 76 81 70 67 54 69 56 52 65 64 42 48 45 42 44 43 50 49 50
13 26 39 34 68 69 75 80 78 68 58 59 63 54 55 67 66 67 65 74 69 76 74 79 89 85 83 82 84 62 56 58 69 57 47 54 42 42 43 45 44 45 47 50
17 16 41 43 67 74 75 81 80 74 55 78 59 62 67 66 69 69 70 71 74 76 77 75 90 87 67 81 68 72 54 64 69 74 61 50 42 40 39 46 51 52 53 56
33 18 33 40 69 73 74 77 86 80 61 64 50 50 56 69 70 72 72 73 78 76 84 97 97 84 84 86 88 87 62 56 65 57 43 40 36 34 37 46 50 52 56 61
53 18 38 39 53 74 72 84 87 85 64 54 79 60 69 67 69 70 72 76 81 79 85 87 82 76 71 91 96 67 45 44 47 49 47 46 43 44 42 46 53 58 61 64
68 20 41 46 39 55 76 80 80 63 56 52 63 64 76 72 72 76 78 83 88 88 83 93 86 81 82 96 83 60 53 54 54 53 54 56 51 47 49 57 61 65 67 66
75 27 50 50 50 64 72 74 70 62 56 54 85 81 67 70 71 77 81 84 86 85 85 88 92 86 90 98 77 65 59 55 52 57 61 56 54 50 56 64 65 67 67 62
66 38 70 79 78 80 77 76 74 76 62 56 78 84 74 73 77 80 85 81 93 86 95 92 88 92 98 80 70 61 59 61 61 60 60 67 63 57 62 66 68 67 61 41
54 66 75 80 81 79 73 69 68 74 70 68 86 64 93 70 83 83 85 89 95 96 88 87 98 95 68 59 58 59 54 52 64 74 68 69 67 66 65 66 65 59 41 35
84 73 67 68 69 64 64 72 85 79 92 72 70 64 85 68 87 86 84 95 96 98 89 94 96 94 75 50 54 44 52 60 62 71 67 61 61 62 66 67 53 41 37 38
68 67 70 72 67 71 83 90 78 96 89 79 83 78 70 73 74 82 91 91 92 98 90 98 100 82 42 44 44 47 61 63 66 70 64 54 61 64 64 52 43 39 39 36
95 93 69 71 77 93 92 81 86 93 74 85 85 97 75 80 79 91 94 93 95 88 99 98 89 51 40 43 39 56 62 64 64 62 55 54 55 59 50 44 38 39 28 16
99 97 93 91 93 93 86 81 81 55 57 79 68 89 78 79 90 90 89 82 86 99 99 89 87 35 34 35 38 56 60 63 63 58 52 48 48 45 40 40 38 20 15 26
99 99 96 95 72 72 67 62 57 62 65 64 68 82 76 97 94 93 92 97 99 96 83 83 31 26 28 28 32 45 53 59 60 54 46 44 42 40 41 38 19 16 25 30
100 99 97 95 93 92 84 76 84 70 68 48 56 95 93 90 91 98 95 92 93 76 89 35 26 29 30 28 28 36 49 55 59 59 52 49 45 42 44 30 17 23 31 32
99 99 96 84 83 80 74 72 79 68 54 84 86 84 70 88 98 96 90 88 80 47 30 25 24 30 34 37 33 33 42 54 59 58 57 55 46 45 46 27 16 28 36 38